#timestamp,LO_Frequency,Hit,StdDev 
1623636015.1,286047002.3,N
1623636016.0,286047002.3,N
1623636035.8,286047001.3,N
1623636055.6,286047003.1,N
1623636075.5,286047001.5,N
1623636095.3,286047004.0,N
1623636115.2,286047003.9,N
1623636135.9,286047004.1,N
1623636155.7,286047002.7,N
1623636175.6,286046998.1,N
1623636195.4,286046999.0,N
1623636215.3,286046998.7,N
1623636235.1,286046999.4,N
1623636236.0,286046999.4,N
1623636255.8,286046996.6,N
1623636275.7,286046999.4,N
1623636295.5,286046998.6,N
1623636315.4,286046998.2,N
1623636335.2,286046998.9,N
1623636355.0,286046996.5,N
1623636355.9,286046996.5,N
1623636375.8,286046997.4,N
1623636395.6,286046998.0,N
1623636415.5,286046997.8,N
1623636435.3,286046996.7,N
1623636455.1,286046996.9,N
1623636475.9,286046997.0,N
1623636495.7,286046997.6,N
1623636515.6,286046997.4,N
1623636535.4,286046995.7,N
1623636555.2,286046993.6,N
1623636575.1,286046992.1,N
1623636576.0,286046992.1,N
1623636595.8,286046990.2,Y
1623636615.7,286046992.6,P
1623636635.5,286046992.6,N
1623636655.3,286046993.9,N
1623636675.2,286046993.5,N
1623636695.0,286046996.2,N
1623636695.9,286046996.2,N
1623636715.8,286046995.3,N
1623636735.6,286046995.4,N
1623636755.4,286046995.7,N
1623636775.3,286046995.4,N
1623636795.1,286046995.7,N
1623636815.8,286046995.8,N
1623636835.7,286046995.9,N
1623636855.5,286046993.9,Y
1623636875.4,286046998.8,P
1623636895.2,286046996.5,N
1623636915.0,286046999.3,N
1623636915.9,286046999.3,N
1623636935.8,286046999.4,N
1623636955.6,286046998.7,N
1623636975.4,286047000.6,N
1623636995.3,286047000.5,N
1623637015.1,286046998.2,N
1623637035.9,286046998.7,N
1623637055.7,286046998.3,N
1623637075.5,286046998.8,N
1623637095.4,286046998.9,N
1623637115.2,286046997.8,N
1623637135.0,286046998.0,N
1623637135.9,286046998.0,N
1623637155.8,286046998.0,N
1623637175.6,286046995.8,Y
1623637195.5,286046996.0,P
1623637215.3,286046995.5,P
1623637235.1,286046997.7,N
1623637255.9,286046997.8,N
1623637275.7,286046995.8,Y
1623637295.5,286046998.6,P
1623637315.4,286046998.2,N
1623637335.2,286046998.7,N
1623637355.1,286046998.1,Y
1623637356.0,286046998.1,P
1623637375.8,286047002.7,P
1623637395.6,286047002.8,N
1623637415.5,286047003.9,N
1623637435.3,286047004.2,N
1623637455.2,286047003.4,N
1623637475.9,286047005.5,N
1623637495.7,286047004.9,N
1623637515.6,286047004.8,N
1623637535.4,286047003.1,N
1623637555.3,286047005.7,N
1623637575.1,286047001.7,N
1623637576.0,286047001.7,N
1623637595.8,286047001.7,N
1623637615.7,286047001.3,N
1623637635.5,286047003.9,N
1623637655.3,286047003.1,N
1623637675.2,286047005.8,N
1623637695.0,286047003.8,N
1623637695.9,286047003.8,N
1623637715.8,286047001.7,N
1623637735.6,286047001.3,N
1623637755.4,286047003.1,N
1623637775.3,286047005.2,N
1623637795.1,286047005.3,N
1623637815.9,286047007.1,Y
1623637835.7,286047004.3,P
1623637855.5,286047005.6,P
1623637875.4,286047004.1,P
1623637895.2,286047004.1,Y
1623637915.1,286046998.4,P
1623637916.0,286046998.4,N
1623637935.8,286047000.8,N
1623637955.6,286046999.4,N
1623637975.5,286046998.5,N
1623637995.3,286046999.2,N
1623638015.2,286046996.7,N
1623638035.9,286046996.7,N
1623638055.7,286046997.3,N
1623638075.6,286046998.8,N
1623638095.4,286046998.6,N
1623638115.3,286046999.4,N
1623638135.1,286046998.5,N
1623638136.0,286046998.5,N
1623638155.8,286047000.5,N
1623638175.7,286047000.1,N
1623638195.5,286047002.6,N
1623638215.3,286047000.0,N
1623638235.2,286046998.8,N
1623638255.0,286046996.5,N
1623638255.9,286046996.5,N
1623638275.8,286046998.8,N
1623638295.6,286047000.8,N
1623638315.4,286047002.7,N
1623638335.3,286046999.8,N
1623638355.1,286047002.2,N
1623638375.8,286047001.5,N
1623638395.7,286046999.8,N
1623638415.5,286046999.7,N
1623638435.4,286047002.5,N
1623638455.2,286047000.9,N
1623638475.0,286047002.0,N
1623638475.9,286047002.0,N
1623638495.8,286047001.0,N
1623638515.6,286046998.7,N
1623638535.5,286046998.4,N
1623638555.3,286047002.6,N
1623638575.1,286047002.3,N
1623638595.9,286047004.0,N
1623638615.7,286047004.3,N
1623638635.6,286047002.2,N
1623638655.4,286047001.8,N
1623638675.2,286047002.8,N
1623638695.1,286047000.4,N
1623638696.0,286047000.4,N
1623638715.8,286047002.1,N
1623638735.7,286047002.7,N
1623638755.5,286047000.4,N
1623638775.3,286047000.1,N
1623638795.2,286047000.9,N
1623638815.0,286047000.6,N
1623638815.9,286047000.6,N
1623638835.7,286047001.3,N
1623638855.6,286047001.5,N
1623638875.4,286047003.7,N
1623638895.3,286047003.7,N
1623638915.1,286047004.3,N
1623638935.8,286047000.7,N
1623638955.7,286047000.8,N
1623638975.5,286047000.2,N
1623638995.4,286047000.9,N
1623639015.2,286046999.9,N
1623639035.0,286047002.4,N
1623639035.9,286047002.4,N
1623639055.8,286046999.7,N
1623639075.6,286047000.5,N
1623639095.5,286047002.8,N
1623639115.3,286047002.6,N
1623639135.1,286047002.5,N
1623639155.3,286047001.7,N
1623639175.1,286047004.2,Y
1623639195.9,286047001.8,P
1623639215.7,286047004.0,P
1623639235.5,286047003.7,P
1623639255.4,286047004.0,Y
1623639275.2,286047000.4,P
1623639295.1,286047000.0,N
1623639296.0,286047000.0,N
1623639315.8,286047001.0,N
1623639335.6,286047000.4,N
1623639355.5,286047000.5,N
1623639375.3,286047000.9,N
1623639395.1,286047000.6,N
1623639415.9,286046998.8,N
1623639435.7,286046997.5,N
1623639455.6,286046996.6,N
1623639475.4,286046996.8,N
1623639495.2,286046999.6,N
1623639515.1,286046996.5,N
1623639516.0,286046996.5,N
1623639535.8,286046998.9,N
1623639555.7,286046998.8,N
1623639575.5,286047000.5,N
1623639595.3,286047001.2,N
